Location: Oberwangen
(47.4286°N, 8.9679°E)
Time: 07:47:42
(UTC+00:00)

Spot 2 Rocket - Pass Details

Date: 20 June 2021
Orbit: 757 x 772 km, 98.5° (Epoch: 04 August)

Event Time Altitude Azimuth Distance (km) Brightness Sun altitude
Exits shadow 20:28:31 - 158° (SSE) 2,352 5.4 -8.7°
Reaches altitude 10° 20:28:40 10° 158° (SSE) 2,291 5.4 -8.7°
Maximum altitude 20:33:43 77° 73° (ENE) 789 3.5 -9.2°
Drops below altitude 10° 20:38:49 10° 348° (NNW) 2,318 7.1 -9.8°
Sets 20:41:08 0° 348° (NNW) 3,251 8.1 -10.0°
